GW1560 Weather Reports


time (UTC)temp
C
wind
direction
speed
KPH
gust
KPH
rain 1hr
cm
rain 24hr
cm
rain mn
cm
humidity
%
barometer
mb
20260510083052 7 221 1.6 4.8 0.00 1.37 0.03 96 1007.8
20260510081541 7 215 1.6 8.0 0.00 1.37 0.03 96 1007.5
20260510080037 8 229 0.0 3.2 0.00 1.37 0.03 96 1007.4
20260510074542 8 215 1.6 4.8 0.00 1.45 0.03 96 1007.5
20260510073044 8 238 0.0 3.2 0.00 1.45 0.03 96 1007.3
20260510071541 8 0 1.6 8.0 0.00 1.45 0.03 96 1007.2
20260510070041 8 200 1.6 6.4 0.00 1.45 0.03 96 1007.4
20260510064539 8 205 1.6 6.4 0.00 1.47 0.03 96 1007.5
20260510063036 8 201 1.6 6.4 0.03 1.47 0.03 96 1007.4
20260510061546 8 178 1.6 3.2 0.03 1.47 0.03 96 1007.8
20260510060040 8 0 1.6 4.8 0.03 1.47 0.03 96 1008.0
20260510054540 8 190 0.0 6.4 0.03 1.47 0.03 96 1008.6
20260510053039 8 0 0.0 4.8 0.00 1.47 0.00 96 1009.1
20260510051547 9 80 0.0 4.8 0.00 1.47 0.00 96 1009.3
20260510050045 9 298 1.6 4.8 0.00 1.47 0.00 96 1009.2
20260510044542 9 229 3.2 12.9 0.00 1.47 0.00 96 1009.0
20260510043040 9 269 4.8 22.5 0.00 1.47 0.00 97 1009.0
20260510041536 8 236 3.2 11.3 0.00 1.47 0.00 97 1007.7
20260510040038 8 190 3.2 8.0 0.00 1.47 0.00 97 1007.3
20260510034547 8 205 1.6 8.0 0.00 1.47 1.47 97 1007.3
20260510033045 8 225 1.6 4.8 0.00 1.47 1.47 97 1007.4
20260510031540 8 221 1.6 6.4 0.00 1.47 1.47 97 1007.8
20260510030038 8 171 1.6 6.4 0.00 1.47 1.47 97 1007.5
20260510024536 8 214 3.2 9.7 0.00 1.47 1.47 97 1007.3
20260510023041 8 221 1.6 8.0 0.00 1.47 1.47 97 1007.1
20260510021538 8 227 1.6 11.3 0.00 1.47 1.47 97 1007.3
20260510020040 8 208 1.6 6.4 0.00 1.47 1.47 97 1007.1
20260510014540 8 238 1.6 6.4 0.00 1.47 1.47 97 1007.1
20260510013045 8 237 1.6 8.0 0.00 1.47 1.47 96 1007.1
20260510011539 8 250 1.6 8.0 0.00 1.47 1.47 96 1007.1
20260510010042 8 140 1.6 8.0 0.00 1.47 1.47 96 1006.8
20260510004540 9 221 1.6 9.7 0.00 1.47 1.47 96 1006.5
20260510003101 9 205 1.6 4.8 0.00 1.47 1.47 96 1006.6
20260510001536 9 221 1.6 4.8 0.00 1.47 1.47 96 1006.4
20260510000040 9 208 1.6 8.0 0.00 1.47 1.47 96 1006.4
20260509234544 10 190 1.6 6.4 0.00 1.47 1.47 96 1006.2
20260509233040 10 196 1.6 6.4 0.00 1.47 1.47 96 1005.9
20260509231538 10 201 3.2 9.7 0.00 1.47 1.47 96 1006.0
20260509230041 10 205 3.2 9.7 0.00 1.47 1.47 97 1006.0
20260509224549 10 221 1.6 8.0 0.00 1.47 1.47 97 1005.8
20260509223047 10 188 1.6 11.3 0.00 1.47 1.47 97 1005.8
20260509221538 10 0 3.2 12.9 0.00 1.47 1.47 97 1006.0
20260509220039 10 232 1.6 9.7 0.00 1.47 1.47 97 1005.9
20260509214542 10 170 3.2 14.5 0.00 1.47 1.47 97 1006.1
20260509213041 10 188 4.8 12.9 0.00 1.47 1.47 97 1006.1
20260509211534 10 195 4.8 12.9 0.00 1.47 1.47 97 1006.4
20260509210033 10 178 3.2 16.1 0.03 1.47 1.47 97 1006.1
20260509204539 10 205 3.2 19.3 0.05 1.47 1.47 97 1006.5
20260509203052 9 195 3.2 8.0 0.10 1.47 1.47 97 1006.6
20260509201539 9 212 1.6 9.7 0.18 1.47 1.47 97 1006.9
20260509200038 9 209 3.2 9.7 0.18 1.45 1.45 97 1006.9
20260509194542 9 185 3.2 11.3 0.18 1.42 1.42 97 1007.1
20260509193041 9 209 3.2 12.9 0.13 1.37 1.37 97 1007.1
20260509191538 9 178 3.2 14.5 0.05 1.30 1.30 97 1007.2
20260509190037 9 147 3.2 12.9 0.05 1.27 1.27 97 1007.2
20260509184544 9 196 1.6 9.7 0.03 1.24 1.24 97 1007.1
20260509183042 9 215 1.6 16.1 0.05 1.24 1.24 97 1007.2
20260509181603 9 164 3.2 9.7 0.05 1.22 1.22 97 1007.3
20260509180108 8 93 3.2 14.5 0.05 1.22 1.22 97 1007.3
20260509174540 9 190 3.2 11.3 0.05 1.22 1.22 97 1007.2
20260509173042 9 232 3.2 9.7 0.03 1.19 1.19 97 1007.1
20260509171551 9 178 3.2 6.4 0.03 1.17 1.17 96 1007.0
20260509170051 9 190 1.6 6.4 0.03 1.17 1.17 96 1007.1
20260509164540 10 51 1.6 8.0 0.03 1.17 1.17 97 1007.1
20260509163038 10 178 1.6 6.4 0.05 1.17 1.17 97 1007.2
20260509161541 9 191 1.6 6.4 0.08 1.14 1.14 97 1007.5
20260509160036 9 0 1.6 8.0 0.13 1.14 1.14 97 1007.6
20260509154538 9 173 1.6 8.0 0.18 1.17 1.14 97 1008.0
20260509153040 8 193 1.6 8.0 0.20 1.14 1.12 97 1008.0
20260509151540 8 215 1.6 14.5 0.20 1.09 1.07 97 1008.2
20260509150038 8 221 1.6 11.3 0.18 1.04 1.02 97 1008.6
20260509144534 8 205 1.6 11.3 0.15 1.02 0.97 96 1008.6
20260509143046 8 196 1.6 9.7 0.13 0.97 0.91 96 1008.3
20260509141545 8 214 1.6 6.4 0.13 0.91 0.86 97 1008.4
20260509140038 8 51 1.6 6.4 0.15 0.89 0.84 96 1008.3
20260509134534 7 158 1.6 6.4 0.18 0.86 0.81 96 1008.5
20260509133054 7 162 0.0 3.2 0.20 0.84 0.79 97 1008.5
20260509131541 7 164 0.0 4.8 0.20 0.79 0.74 96 1008.6
20260509130040 7 239 1.6 4.8 0.18 0.74 0.69 96 1008.5
20260509124538 7 0 1.6 9.7 0.15 0.69 0.64 96 1008.8
20260509123040 7 209 1.6 4.8 0.13 0.64 0.58 96 1008.7
20260509121543 7 196 1.6 4.8 0.13 0.58 0.53 96 1008.9
20260509120033 7 195 1.6 6.4 0.15 0.56 0.51 96 1008.9
20260509114540 7 205 1.6 6.4 0.23 0.53 0.48 96 1008.8
20260509113042 7 196 1.6 4.8 0.25 0.51 0.46 96 1008.8
20260509111539 6 153 0.0 3.2 0.20 0.46 0.41 96 1008.8
20260509110047 6 193 0.0 4.8 0.15 0.38 0.33 96 1008.8
20260509104559 6 195 1.6 9.7 0.08 0.30 0.25 96 1008.8
20260509103100 6 0 1.6 6.4 0.03 0.25 0.20 95 1008.7
20260509101540 6 248 0.0 9.7 0.03 0.25 0.20 95 1008.5
20260509100041 6 162 0.0 3.2 0.00 0.23 0.18 95 1008.6
20260509094546 6 0 0.0 3.2 0.03 0.25 0.18 95 1008.6
20260509093040 6 212 0.0 3.2 0.03 0.25 0.18 95 1008.5
20260509091544 6 0 0.0 3.2 0.03 0.25 0.18 95 1008.6
20260509090051 6 265 0.0 8.0 0.05 0.25 0.18 95 1008.8
20260509084539 6 193 0.0 4.8 0.03 0.25 0.15 94 1008.9